Location: Vancouver
(49.2500°N, 123.1330°W)
Time: 00:05:10
(UTC-08:00)

Vanguard 2 Rocket - Visible Passes

Search period start: 24 February 2018 00:00
Search period end: 06 March 2018 00:00
Orbit: 555 x 3327 km, 32.9° (Epoch: 23 February)

Date Brightness Start Highest point End Pass type
(mag) Time Alt. Az. Time Alt. Az. Time Alt. Az.
24 Feb 10.3 02:02:00 27° SSE 02:02:00 27° SSE 02:09:59 10° SE visible
24 Feb 10.1 04:07:50 27° SSW 04:07:50 27° SSW 04:22:20 10° SSE visible
24 Feb 9.6 20:18:24 10° S 20:19:59 13° SSE 20:19:59 13° SSE visible
25 Feb 10.7 01:06:10 15° SE 01:06:10 15° SE 01:08:47 10° ESE visible
25 Feb 10.2 03:12:00 28° S 03:12:00 28° S 03:22:56 10° SSE visible
25 Feb 10.5 05:17:50 14° SW 05:21:15 14° SW 05:29:42 10° SSW visible
25 Feb 9.7 21:28:32 10° SSW 21:30:01 15° SSW 21:30:01 15° SSW visible
26 Feb 10.4 02:16:13 22° SSE 02:16:13 22° SSE 02:22:43 10° SE visible
26 Feb 10.4 04:22:04 20° SSW 04:22:04 20° SSW 04:33:04 10° S visible
26 Feb 9.3 20:30:56 10° S 20:34:10 19° SSE 20:34:10 19° SSE visible
27 Feb 10.8 01:20:29 13° SE 01:20:29 13° SE 01:21:50 10° SE visible
27 Feb 10.4 03:26:20 22° S 03:26:20 22° S 03:34:31 10° SSE visible
27 Feb 9.4 19:34:31 10° SSE 19:38:18 14° SE 19:38:18 14° SE visible
27 Feb 9.5 21:42:09 10° SW 21:44:08 18° SSW 21:44:08 18° SSW visible
28 Feb 10.6 02:30:38 17° SSE 02:30:38 17° SSE 02:34:51 10° SSE visible
28 Feb 10.6 04:36:29 13° SW 04:36:29 13° SW 04:41:17 10° SSW visible
28 Feb 9.1 20:44:10 10° SSW 20:48:13 23° S 20:48:13 23° S visible
01 Mar 10.6 03:40:48 14° SSW 03:40:48 14° SSW 03:44:46 10° S visible
01 Mar 9.1 19:46:51 10° S 19:51:44 18° SE 19:52:15 18° SE visible
01 Mar 9.5 21:56:04 10° SW 21:58:05 18° SW 21:58:05 18° SW visible
02 Mar 10.8 02:45:09 11° S 02:45:09 11° S 02:46:07 10° SSE visible
02 Mar 9.3 18:52:04 10° SE 18:52:56 10° SE 18:53:51 10° SE visible
02 Mar 9.0 20:57:51 10° SW 21:02:05 25° S 21:02:05 25° S visible
03 Mar 8.9 20:00:04 10° SSW 20:05:19 21° SSE 20:06:04 21° SE visible
03 Mar 9.5 22:10:13 10° SW 22:11:53 17° SW 22:11:53 17° SW visible
04 Mar 9.0 19:03:07 10° S 19:06:25 14° SE 19:10:01 11° ESE visible
04 Mar 8.9 21:11:49 10° SW 21:15:49 26° SSW 21:15:49 26° SSW visible
05 Mar 8.8 20:13:46 10° SSW 20:19:05 24° SSE 20:19:44 24° SSE visible
05 Mar 9.6 22:24:33 10° WSW 22:25:33 14° SW 22:25:33 14° SW visible
